[[{"header":{"parameterUnit":"m.s-1","parameterCategory":1,"la1":30.2992,"la2":30.254,"lo1":-89.0895,"lo2":-89.0443,"dy":0.0025,"dx":0.0025,"nx":19,"ny":19,"refTime":"2026-04-26T09:00:00:Z","depth":0,"parameterNumber":2,"parameterNumberName":"U-component_of_WINDS"},"data":[0,0,0,1.5905,1.5908,1.6054,1.6054,1.6239,1.6241,0,0,0,0,0,0,0,0,0,0,0,1.586,1.5861,1.5904,1.5908,1.6054,1.6054,1.6239,1.6241,0,0,0,0,0,0,0,0,0,0,0,1.5859,1.586,1.5862,1.5908,1.6054,1.6054,1.6239,1.6129,0,0,0,0,0,0,0,0,0,0,1.5988,1.5945,1.586,1.5862,1.5909,1.6053,1.6054,1.6124,1.6136,1.6172,0,1.6203,0,1.6225,1.6253,1.6254,0,0,0,1.591,1.5935,1.5975,1.5862,1.5911,1.6053,1.5988,1.6131,1.6144,1.6188,1.6206,1.6213,1.6228,1.6254,1.6255,1.6454,1.6455,0,0,1.5901,1.5885,1.5966,1.5984,1.596,1.5984,1.5993,1.6139,1.6158,1.6206,1.6217,1.6231,1.6255,1.6257,1.6453,1.6454,0,0,0,1.5877,1.588,1.5917,1.5976,1.6003,1.5988,1.5998,1.6151,1.6165,1.6219,1.6233,1.6257,1.6259,1.6452,1.6453,1.6477,0,0,0,1.5872,1.5865,1.5913,1.5905,1.6,1.6079,1.6007,1.6154,1.6171,1.6232,1.6257,1.6261,1.6451,1.6453,1.6475,1.6491,0,0,0,1.5851,1.5863,1.5883,1.5904,1.5966,1.6077,1.6099,1.6158,1.618,1.6254,1.6261,1.6451,1.6453,1.6472,1.6488,1.6537,0,0,0,1.5823,1.5905,1.5883,1.598,1.5964,1.6091,1.6098,1.6193,1.626,1.6257,1.6451,1.6453,1.6472,1.6485,1.6534,1.6574,1.6589,0,0,1.5917,1.5916,1.5974,1.5959,1.6084,1.607,1.6199,1.6277,1.63,1.6401,1.6406,1.6476,1.6487,1.6536,1.6685,1.6697,0,0,0,1.5998,1.6039,1.6076,1.6137,1.6197,1.6249,1.6308,1.6336,1.6423,1.6348,1.6509,1.6516,1.6545,1.6565,1.6575,1.66,1.6462,1.6462,1.6462,1.6107,1.613,1.6227,1.6267,1.6327,1.6386,1.6436,1.6484,1.6492,1.653,1.6559,1.6647,1.6669,1.6677,1.6703,1.6584,1.6584,1.6584,1.6584,1.6245,1.6306,1.6312,1.6408,1.6432,1.6514,1.6573,1.6576,1.6655,1.6627,1.6654,1.6619,1.6689,1.6713,1.6586,1.6586,1.6586,1.6586,1.6585,1.6317,1.635,1.6382,1.6471,1.6538,1.6577,1.6652,1.6672,1.6692,1.6719,1.6751,1.6751,1.6751,1.6733,1.6734,1.6734,1.6734,1.6734,1.6735,1.6378,1.6413,1.6473,1.6542,1.6583,1.6639,1.6698,1.674,1.6791,1.68,1.68,1.6802,1.6693,1.6663,1.6739,1.6739,1.6738,1.6738,1.6737,1.6505,1.6479,1.6571,1.6612,1.6693,1.6757,1.6782,1.6864,1.6901,1.6937,1.6934,1.685,1.685,1.6842,1.6818,1.693,1.693,1.693,1.693,1.6564,1.6566,1.6663,1.6726,1.6791,1.6823,1.6925,1.6972,1.7016,1.7041,1.7028,1.6998,1.6989,1.6995,1.6983,1.6961,1.7107,1.7107,1.7107,1.6642,1.6651,1.6733,1.6775,1.684,1.6895,1.6992,1.7065,1.711,1.7115,1.706,1.7052,1.7004,1.6988,1.6989,1.6971,1.693,0,0]},{"header":{"parameterUnit":"m.s-1","parameterCategory":1,"la1":30.2992,"la2":30.254,"lo1":-89.0895,"lo2":-89.0443,"dy":0.0025,"dx":0.0025,"nx":19,"ny":19,"refTime":"2026-04-26T09:00:00:Z","depth":0,"parameterNumber":3,"parameterNumberName":"V-component_of_WINDS"},"data":[0,0,0,2.8247,2.8249,2.8338,2.8338,2.8452,2.8453,0,0,0,0,0,0,0,0,0,0,0,2.8224,2.8225,2.8247,2.825,2.8338,2.8338,2.8452,2.8453,0,0,0,0,0,0,0,0,0,0,0,2.8224,2.8225,2.8226,2.825,2.8338,2.8338,2.8452,2.8384,0,0,0,0,0,0,0,0,0,0,2.8298,2.8281,2.8225,2.8226,2.825,2.8338,2.8338,2.8381,2.8388,2.8414,0,2.8439,0,2.8448,2.8461,2.8462,0,0,0,2.8246,2.8275,2.8296,2.8227,2.8251,2.8338,2.8297,2.8385,2.8394,2.8424,2.8441,2.8445,2.845,2.8462,2.8463,2.8624,2.8625,0,0,2.8241,2.8242,2.829,2.8301,2.8291,2.8294,2.83,2.839,2.8408,2.8441,2.8448,2.8452,2.8463,2.8464,2.8623,2.8624,0,0,0,2.823,2.8238,2.8257,2.8297,2.8313,2.8297,2.8303,2.8404,2.841,2.8449,2.8454,2.8464,2.8465,2.8622,2.8624,2.8668,0,0,0,2.8226,2.8231,2.8255,2.8256,2.8311,2.836,2.8315,2.8404,2.8414,2.8453,2.8464,2.8466,2.8621,2.8623,2.8665,2.8689,0,0,0,2.8217,2.823,2.8245,2.8256,2.8294,2.8359,2.837,2.8406,2.8417,2.8462,2.8467,2.8621,2.8623,2.8662,2.8684,2.8731,0,0,0,2.8207,2.8283,2.8245,2.8331,2.8294,2.8387,2.8369,2.8438,2.8482,2.8464,2.8621,2.8623,2.8661,2.8681,2.8728,2.877,2.8788,0,0,2.8303,2.8294,2.8345,2.8314,2.8414,2.8373,2.8479,2.8518,2.8521,2.8589,2.8593,2.8666,2.8684,2.873,2.889,2.8904,0,0,0,2.8375,2.8411,2.8437,2.848,2.8513,2.8542,2.8565,2.8579,2.8637,2.8557,2.8696,2.8707,2.8734,2.8754,2.8766,2.8789,2.8633,2.8633,2.8633,2.8509,2.851,2.8593,2.8605,2.8646,2.8669,2.8701,2.8724,2.8712,2.8745,2.8765,2.8862,2.8886,2.8895,2.8918,2.8788,2.8788,2.8788,2.8789,2.8647,2.8698,2.8681,2.8756,2.8755,2.8817,2.8841,2.883,2.8886,2.8847,2.8871,2.8828,2.891,2.8931,2.8792,2.8791,2.8791,2.8791,2.879,2.8735,2.8759,2.8776,2.8837,2.8884,2.8892,2.8946,2.8944,2.8942,2.8966,2.8985,2.8985,2.8982,2.8975,2.8976,2.8976,2.8976,2.8977,2.8977,2.8818,2.8836,2.8883,2.8924,2.8951,2.8985,2.9008,2.9033,2.906,2.9054,2.9054,2.9038,2.8919,2.8889,2.8982,2.8981,2.898,2.898,2.898,2.8957,2.8925,2.8998,2.9025,2.9072,2.9117,2.9113,2.9165,2.9185,2.9211,2.919,2.9103,2.9094,2.9084,2.9059,2.9191,2.9191,2.9191,2.9191,2.9029,2.9025,2.9099,2.9141,2.9183,2.9187,2.9266,2.9284,2.9298,2.931,2.929,2.9257,2.9247,2.9243,2.923,2.9206,2.9373,2.9373,2.9373,2.9114,2.9113,2.9183,2.9198,2.9234,2.9264,2.9338,2.9386,2.9394,2.9381,2.9319,2.9311,2.9257,2.924,2.9224,2.9204,2.916,0,0]}]]